Regional Weather Roundup
Issued by NWS

Home | Current Version | Previous Version | Text Only | Print | Product List | Glossary Off
Versions: 1 2 3 4 5 6 7 8 9 10 11 12 13 14 15 16 17 18 19 20 21 22 23 24 25 26 27 28 29 30 31 32 33 34 35 36 37 38 39 40 41 42 43 44 45 46 47 48 49 50

987
ASUS43 KBIS 261810
RWRND

NORTH DAKOTA REGIONAL WEATHER ROUNDUP
NATIONAL WEATHER SERVICE BISMARCK ND
100 PM CDT SUN MAR 26 2017

NOTE: "FAIR" INDICATES FEW OR NO CLOUDS BELOW 12,000 FEET WITH NO
SIGNIFICANT WEATHER AND/OR OBSTRUCTIONS TO VISIBILITY.


NDZ001>003-009>011-017-261900-
NORTHWEST NORTH DAKOTA

CITY           SKY/WX    TMP DP  RH WIND       PRES   REMARKS
WILLISTON      FAIR      58  33  39 S7        29.89F
6HR MIN TEMP:  30; 6HR MAX TEMP:  58;

MINOT          FAIR      56  41  57 N7        29.90S
MINOT AFB      SUNNY     49  40  70 E6        29.89F
$$

NDZ018>021-031>035-040>046-261900-
SOUTHWEST NORTH DAKOTA

CITY           SKY/WX    TMP DP  RH WIND       PRES   REMARKS
BISMARCK       FAIR      54  37  52 CALM      29.93S
6HR MIN TEMP:  36; 6HR MAX TEMP:  55;

DICKINSON      FAIR      56  30  37 SW3       29.90F
GARRISON         N/A     56  37  49 W9        29.91F
6HR MIN TEMP:  33; 6HR MAX TEMP:  56;

HETTINGER ARPT CLOUDY    55  35  47 W5        29.93S
$$

NDZ004>008-012>016-024-026-027-054-261900-
NORTHEAST NORTH DAKOTA

CITY           SKY/WX    TMP DP  RH WIND       PRES   REMARKS
GRAND FORKS    CLOUDY    42  38  85 S7        29.96R
GRND FRKS AFB  CLOUDY    43  38  82 SW6       29.96S
DEVILS LAKE    FAIR      46  39  76 CALM      29.94S
$$

NDZ022-023-025-028>030-036>039-047>053-261900-
SOUTHEAST NORTH DAKOTA

CITY           SKY/WX    TMP DP  RH WIND       PRES   REMARKS
FARGO          CLOUDY    42  37  82 S7        29.95F
6HR MIN TEMP:  34; 6HR MAX TEMP:  42;

JAMESTOWN      CLOUDY    48  40  73 VRB5      29.92S
$$





USA.gov is the U.S. government's official web portal to all federal, state and local government web resources and services.